Simultaneous Nadir Overpasses (SNOs) Predictions

Prediction of SNOs between NOAA-20 and NOAA-19 Satellite Orbit:

Table of predicted SNOs for the next 14.0 days since TLE Epoch: 9/14/2024
Index Date (NOAA-20) Time (NOAA-20) Lat,Lon (NOAA-20) SZA (NOAA-20 ) Date (NOAA-19) Time (NOAA-19) Lat,Lon (NOAA-19) SZA (NOAA-19 ) Distance(km) Time Diff (sec)
1 09/25/2024 09:48:02 -72.51,-154.98 106.37 09/25/2024 09:46:47 -72.52,-155.01 106.35 1.95 75
2 09/25/2024 10:38:48 72.54, 12.27 73.68 09/25/2024 10:37:39 72.53, 12.28 73.68 1.34 69
3 09/25/2024 11:29:32 -72.53, 179.62 106.33 09/25/2024 11:28:44 -72.55, 179.55 106.30 3.25 48
4 09/25/2024 12:20:18 72.56, -13.13 73.72 09/25/2024 12:19:36 72.55, -13.15 73.72 0.85 42
5 09/25/2024 13:11:03 -72.59, 154.11 106.23 09/25/2024 13:10:41 -72.57, 154.11 106.25 2.45 22
6 09/25/2024 14:01:48 72.57, -38.54 73.77 09/25/2024 14:01:33 72.58, -38.59 73.77 1.74 15
7 09/25/2024 14:52:33 -72.61, 128.70 106.19 09/25/2024 14:52:38 -72.60, 128.68 106.20 1.81 5
8 09/25/2024 15:43:18 72.59, -63.95 73.81 09/25/2024 15:43:30 72.60, -64.03 73.82 2.94 12
9 09/25/2024 16:34:03 -72.63, 103.29 106.14 09/25/2024 16:34:35 -72.62, 103.24 106.15 1.98 32
10 09/25/2024 17:24:49 72.66, -89.46 73.91 09/25/2024 17:25:27 72.62, -89.47 73.87 3.67 38
11 09/25/2024 18:15:33 -72.64, 77.89 106.10 09/25/2024 18:16:32 -72.64, 77.80 106.10 2.80 59
12 09/25/2024 19:06:19 72.67,-114.87 73.96 09/25/2024 19:07:24 72.65,-114.90 73.92 3.10 65
13 09/25/2024 19:57:11 -73.06, 51.63 105.62 09/25/2024 19:58:22 -73.01, 53.13 105.73 48.90 71
14 09/25/2024 20:48:02 73.35,-141.68 74.70 09/25/2024 20:49:08 73.32,-138.89 74.58 89.07 66



Historial Predications of SNOs between NOAA-20 and NOAA-19
